,,PressureMeas_1m,,PRMeasQMR101_1,,RHStat155_1m_1,,SRMeasQMS101R_1m,,TAStat155_1m_1,,GenWind_1,,GenWind_1,
2019-04-08, 00:00:06,VALID,918.312,VALID,0.0,VALID,98.224,VALID,0.015,VALID,20.216,INVALID,360.0,VALID,0.0,
2019-04-08, 00:01:06,VALID,918.28,VALID,0.0,VALID,98.474,VALID,0.02,VALID,20.353,INVALID,360.0,VALID,0.0,
2019-04-08, 00:02:06,VALID,918.265,VALID,0.0,VALID,98.601,VALID,0.027,VALID,20.443,INVALID,360.0,VALID,0.0,
2019-04-08, 00:03:06,VALID,918.265,VALID,0.0,VALID,98.585,VALID,0.017,VALID,20.415,INVALID,360.0,VALID,0.0,
2019-04-08, 00:04:06,VALID,918.223,VALID,0.0,VALID,98.636,VALID,0.008,VALID,20.421,INVALID,360.0,VALID,0.0,
2019-04-08, 00:05:06,VALID,918.216,VALID,0.0,VALID,98.661,VALID,0.019,VALID,20.416,INVALID,360.0,VALID,0.0,
2019-04-08, 00:06:06,VALID,918.21,VALID,0.0,VALID,98.676,VALID,0.014,VALID,20.403,INVALID,360.0,VALID,0.0,
2019-04-08, 00:07:06,VALID,918.204,VALID,0.0,VALID,98.677,VALID,0.039,VALID,20.396,INVALID,360.0,VALID,0.0,
2019-04-08, 00:08:06,VALID,918.179,VALID,0.0,VALID,98.724,VALID,0.03,VALID,20.406,INVALID,360.0,VALID,0.0,
2019-04-08, 00:09:06,VALID,918.184,VALID,0.0,VALID,98.722,VALID,0.017,VALID,20.357,INVALID,360.0,VALID,0.0,
2019-04-08, 00:10:06,VALID,918.178,VALID,0.0,VALID,98.694,VALID,0.016,VALID,20.313,INVALID,360.0,VALID,0.0,
2019-04-08, 00:11:06,VALID,918.166,VALID,0.0,VALID,98.714,VALID,0.021,VALID,20.305,INVALID,360.0,VALID,0.0,
2019-04-08, 00:12:06,VALID,918.148,VALID,0.0,VALID,98.742,VALID,0.019,VALID,20.318,INVALID,360.0,VALID,0.0,
2019-04-08, 00:13:06,VALID,918.126,VALID,0.0,VALID,98.799,VALID,0.029,VALID,20.343,INVALID,360.0,VALID,0.0,
2019-04-08, 00:14:06,VALID,918.143,VALID,0.0,VALID,98.864,VALID,0.015,VALID,20.37,INVALID,360.0,VALID,0.0,
2019-04-08, 00:15:06,VALID,918.113,VALID,0.0,VALID,98.825,VALID,0.037,VALID,20.31,INVALID,360.0,VALID,0.0,
2019-04-08, 00:16:06,VALID,918.11,VALID,0.0,VALID,98.855,VALID,0.038,VALID,20.34,INVALID,360.0,VALID,0.0,
2019-04-08, 00:17:06,VALID,918.115,VALID,0.0,VALID,98.931,VALID,0.036,VALID,20.403,INVALID,360.0,VALID,0.0,
2019-04-08, 00:18:06,VALID,918.085,VALID,0.0,VALID,98.965,VALID,0.029,VALID,20.436,INVALID,360.0,VALID,0.0,
2019-04-08, 00:19:06,VALID,918.078,VALID,0.0,VALID,98.981,VALID,0.027,VALID,20.451,INVALID,360.0,VALID,0.0,
2019-04-08, 00:20:06,VALID,918.082,VALID,0.0,VALID,98.983,VALID,0.027,VALID,20.446,INVALID,360.0,VALID,0.0,
2019-04-08, 00:21:06,VALID,918.095,VALID,0.0,VALID,98.972,VALID,0.016,VALID,20.432,INVALID,360.0,VALID,0.0,
2019-04-08, 00:22:06,VALID,918.083,VALID,0.0,VALID,98.917,VALID,0.032,VALID,20.308,INVALID,360.0,VALID,0.0,
2019-04-08, 00:23:06,VALID,918.065,VALID,0.0,VALID,98.804,VALID,0.029,VALID,20.16,INVALID,360.0,VALID,0.0,
2019-04-08, 00:24:06,VALID,918.046,VALID,0.0,VALID,98.854,VALID,0.01,VALID,20.128,INVALID,360.0,VALID,0.0,
2019-04-08, 00:25:06,VALID,917.987,VALID,0.0,VALID,98.904,VALID,0.022,VALID,20.134,INVALID,360.0,VALID,0.0,
2019-04-08, 00:26:06,VALID,917.995,VALID,0.0,VALID,98.957,VALID,0.036,VALID,20.179,INVALID,360.0,VALID,0.0,
2019-04-08, 00:27:06,VALID,917.973,VALID,0.0,VALID,99.014,VALID,0.024,VALID,20.21,INVALID,360.0,VALID,0.0,
2019-04-08, 00:28:06,VALID,917.972,VALID,0.0,VALID,99.07,VALID,0.039,VALID,20.249,INVALID,360.0,VALID,0.0,
2019-04-08, 00:29:06,VALID,917.945,VALID,0.0,VALID,99.064,VALID,0.026,VALID,20.265,INVALID,360.0,VALID,0.0,
2019-04-08, 00:30:06,VALID,917.944,VALID,0.0,VALID,99.145,VALID,-0.001,VALID,20.35,INVALID,360.0,VALID,0.0,
2019-04-08, 00:31:06,VALID,917.932,VALID,0.0,VALID,99.102,VALID,-0.002,VALID,20.344,INVALID,360.0,VALID,0.0,
2019-04-08, 00:32:06,VALID,917.911,VALID,0.0,VALID,99.098,VALID,-0.013,VALID,20.322,INVALID,360.0,VALID,0.0,
2019-04-08, 00:33:06,VALID,917.874,VALID,0.0,VALID,99.128,VALID,-0.015,VALID,20.337,INVALID,360.0,VALID,0.0,
2019-04-08, 00:34:06,VALID,917.852,VALID,0.0,VALID,99.157,VALID,-0.009,VALID,20.369,INVALID,360.0,VALID,0.0,
2019-04-08, 00:35:06,VALID,917.837,VALID,0.0,VALID,99.182,VALID,-0.011,VALID,20.395,INVALID,360.0,VALID,0.0,
2019-04-08, 00:36:06,VALID,917.812,VALID,0.0,VALID,99.198,VALID,0.006,VALID,20.416,INVALID,360.0,VALID,0.0,
2019-04-08, 00:37:06,VALID,917.802,VALID,0.0,VALID,99.22,VALID,0.012,VALID,20.432,INVALID,360.0,VALID,0.0,
2019-04-08, 00:38:06,VALID,917.785,VALID,0.0,VALID,99.203,VALID,0.003,VALID,20.422,INVALID,360.0,VALID,0.0,
2019-04-08, 00:39:06,VALID,917.769,VALID,0.0,VALID,99.251,VALID,0.019,VALID,20.436,INVALID,360.0,VALID,0.0,
2019-04-08, 00:40:06,VALID,917.773,VALID,0.0,VALID,99.262,VALID,-0.01,VALID,20.477,INVALID,360.0,VALID,0.0,
2019-04-08, 00:41:06,VALID,917.762,VALID,0.0,VALID,99.265,VALID,0.014,VALID,20.481,INVALID,360.0,VALID,0.0,
2019-04-08, 00:42:06,VALID,917.776,VALID,0.0,VALID,99.243,VALID,0.009,VALID,20.462,INVALID,360.0,VALID,0.0,
2019-04-08, 00:43:06,VALID,917.747,VALID,0.0,VALID,99.224,VALID,0.0,VALID,20.421,INVALID,360.0,VALID,0.0,
2019-04-08, 00:44:06,VALID,917.732,VALID,0.0,VALID,99.244,VALID,0.001,VALID,20.399,INVALID,360.0,VALID,0.0,
2019-04-08, 00:45:06,VALID,917.712,VALID,0.0,VALID,99.215,VALID,0.043,VALID,20.367,INVALID,360.0,VALID,0.0,
2019-04-08, 00:46:06,VALID,917.682,VALID,0.0,VALID,99.221,VALID,0.06,VALID,20.341,INVALID,360.0,VALID,0.0,
2019-04-08, 00:47:06,VALID,917.644,VALID,0.0,VALID,99.265,VALID,0.06,VALID,20.367,INVALID,360.0,VALID,0.0,
2019-04-08, 00:48:06,VALID,917.594,VALID,0.0,VALID,99.277,VALID,0.048,VALID,20.366,INVALID,360.0,VALID,0.0,
2019-04-08, 00:49:06,VALID,917.55,VALID,0.0,VALID,99.258,VALID,0.054,VALID,20.334,INVALID,360.0,VALID,0.0,
2019-04-08, 00:50:06,VALID,917.534,VALID,0.0,VALID,99.269,VALID,0.034,VALID,20.312,INVALID,360.0,VALID,0.0,
2019-04-08, 00:51:06,VALID,917.516,VALID,0.0,VALID,99.24,VALID,0.03,VALID,20.283,INVALID,360.0,VALID,0.0,
2019-04-08, 00:52:06,VALID,917.486,VALID,0.0,VALID,99.263,VALID,0.047,VALID,20.289,INVALID,360.0,VALID,0.0,
2019-04-08, 00:53:06,VALID,917.465,VALID,0.0,VALID,99.257,VALID,0.044,VALID,20.252,INVALID,360.0,VALID,0.0,
2019-04-08, 00:54:06,VALID,917.447,VALID,0.0,VALID,99.289,VALID,0.045,VALID,20.243,INVALID,360.0,VALID,0.0,
2019-04-08, 00:55:06,VALID,917.423,VALID,0.0,VALID,99.279,VALID,0.048,VALID,20.247,INVALID,360.0,VALID,0.0,
2019-04-08, 00:56:06,VALID,917.387,VALID,0.0,VALID,99.268,VALID,0.045,VALID,20.196,INVALID,360.0,VALID,0.0,
2019-04-08, 00:57:06,VALID,917.4,VALID,0.0,VALID,99.253,VALID,0.05,VALID,20.151,INVALID,360.0,VALID,0.0,
2019-04-08, 00:58:06,VALID,917.4,VALID,0.0,VALID,99.267,VALID,0.036,VALID,20.156,INVALID,360.0,VALID,0.0,
2019-04-08, 00:59:06,VALID,917.398,VALID,0.0,VALID,99.27,VALID,0.037,VALID,20.161,INVALID,360.0,VALID,0.0,
2019-04-08, 01:00:06,VALID,917.381,VALID,0.0,VALID,99.258,VALID,-0.003,VALID,20.129,INVALID,360.0,VALID,0.0,
2019-04-08, 01:01:06,VALID,917.357,VALID,0.0,VALID,99.291,VALID,0.017,VALID,20.122,INVALID,360.0,VALID,0.0,
2019-04-08, 01:02:06,VALID,917.318,VALID,0.0,VALID,99.284,VALID,-0.005,VALID,20.108,INVALID,360.0,VALID,0.0,
2019-04-08, 01:03:06,VALID,917.291,VALID,0.0,VALID,99.288,VALID,0.001,VALID,20.102,INVALID,360.0,VALID,0.0,
2019-04-08, 01:04:06,VALID,917.292,VALID,0.0,VALID,99.277,VALID,0.003,VALID,20.082,INVALID,360.0,VALID,0.0,
2019-04-08, 01:05:06,VALID,917.268,VALID,0.0,VALID,99.305,VALID,0.011,VALID,20.093,INVALID,360.0,VALID,0.0,
2019-04-08, 01:06:06,VALID,917.234,VALID,0.0,VALID,99.312,VALID,0.005,VALID,20.126,INVALID,360.0,VALID,0.0,
2019-04-08, 01:07:06,VALID,917.218,VALID,0.0,VALID,99.347,VALID,-0.001,VALID,20.17,INVALID,360.0,VALID,0.0,
2019-04-08, 01:08:06,VALID,917.203,VALID,0.0,VALID,99.306,VALID,0.001,VALID,20.102,INVALID,360.0,VALID,0.0,
2019-04-08, 01:09:06,VALID,917.164,VALID,0.0,VALID,99.321,VALID,0.006,VALID,20.097,INVALID,360.0,VALID,0.0,
2019-04-08, 01:10:06,VALID,917.137,VALID,0.0,VALID,99.317,VALID,0.018,VALID,20.073,INVALID,360.0,VALID,0.0,
2019-04-08, 01:11:06,VALID,917.135,VALID,0.0,VALID,99.293,VALID,0.024,VALID,20.04,INVALID,360.0,VALID,0.0,
2019-04-08, 01:12:06,VALID,917.127,VALID,0.0,VALID,99.301,VALID,0.008,VALID,20.035,INVALID,360.0,VALID,0.0,
2019-04-08, 01:13:06,VALID,917.101,VALID,0.0,VALID,99.31,VALID,-0.007,VALID,20.03,INVALID,360.0,VALID,0.0,
2019-04-08, 01:14:06,VALID,917.099,VALID,0.0,VALID,99.308,VALID,-0.003,VALID,19.973,INVALID,360.0,VALID,0.0,
2019-04-08, 01:15:06,VALID,917.078,VALID,0.0,VALID,99.295,VALID,0.009,VALID,19.931,INVALID,360.0,VALID,0.0,
2019-04-08, 01:16:06,VALID,917.057,VALID,0.0,VALID,99.309,VALID,-0.002,VALID,19.936,INVALID,360.0,VALID,0.0,
2019-04-08, 01:17:06,VALID,917.02,VALID,0.0,VALID,99.325,VALID,-0.0,VALID,19.944,INVALID,360.0,VALID,0.0,
2019-04-08, 01:18:06,VALID,916.997,VALID,0.0,VALID,99.339,VALID,0.006,VALID,19.968,INVALID,360.0,VALID,0.0,
2019-04-08, 01:19:06,VALID,916.975,VALID,0.0,VALID,99.366,VALID,-0.014,VALID,19.951,INVALID,360.0,VALID,0.0,
2019-04-08, 01:20:06,VALID,916.985,VALID,0.0,VALID,99.331,VALID,-0.007,VALID,19.892,INVALID,360.0,VALID,0.0,
2019-04-08, 01:21:06,VALID,916.999,VALID,0.0,VALID,99.31,VALID,0.003,VALID,19.861,INVALID,360.0,VALID,0.0,
2019-04-08, 01:22:06,VALID,917.004,VALID,0.0,VALID,99.331,VALID,-0.006,VALID,19.857,INVALID,360.0,VALID,0.0,
2019-04-08, 01:23:06,VALID,917.01,VALID,0.0,VALID,99.322,VALID,-0.003,VALID,19.826,INVALID,360.0,VALID,0.0,
2019-04-08, 01:24:06,VALID,917.007,VALID,0.0,VALID,99.325,VALID,-0.009,VALID,19.824,INVALID,360.0,VALID,0.0,
2019-04-08, 01:25:06,VALID,916.972,VALID,0.0,VALID,99.354,VALID,0.004,VALID,19.839,INVALID,360.0,VALID,0.0,
2019-04-08, 01:26:06,VALID,916.952,VALID,0.0,VALID,99.381,VALID,0.006,VALID,19.878,INVALID,360.0,VALID,0.0,
2019-04-08, 01:27:06,VALID,916.909,VALID,0.0,VALID,99.37,VALID,-0.011,VALID,19.876,INVALID,360.0,VALID,0.0,
2019-04-08, 01:28:06,VALID,916.911,VALID,0.0,VALID,99.376,VALID,0.003,VALID,19.909,INVALID,360.0,VALID,0.0,
2019-04-08, 01:29:06,VALID,916.889,VALID,0.0,VALID,99.373,VALID,0.004,VALID,19.882,INVALID,360.0,VALID,0.0,
2019-04-08, 01:30:06,VALID,916.904,VALID,0.0,VALID,99.363,VALID,0.019,VALID,19.806,INVALID,360.0,VALID,0.0,
2019-04-08, 01:31:06,VALID,916.925,VALID,0.0,VALID,99.345,VALID,0.029,VALID,19.804,INVALID,360.0,VALID,0.0,
2019-04-08, 01:32:06,VALID,916.929,VALID,0.0,VALID,99.381,VALID,0.036,VALID,19.813,INVALID,360.0,VALID,0.0,
2019-04-08, 01:33:06,VALID,916.95,VALID,0.0,VALID,99.375,VALID,0.014,VALID,19.796,INVALID,360.0,VALID,0.0,
2019-04-08, 01:34:06,VALID,916.943,VALID,0.0,VALID,99.37,VALID,0.017,VALID,19.794,INVALID,360.0,VALID,0.0,
2019-04-08, 01:35:06,VALID,916.933,VALID,0.0,VALID,99.346,VALID,0.011,VALID,19.756,INVALID,360.0,VALID,0.0,
2019-04-08, 01:36:06,VALID,916.931,VALID,0.0,VALID,99.365,VALID,0.024,VALID,19.767,INVALID,360.0,VALID,0.0,
2019-04-08, 01:37:06,VALID,916.941,VALID,0.0,VALID,99.394,VALID,0.003,VALID,19.787,INVALID,360.0,VALID,0.0,
2019-04-08, 01:38:06,VALID,916.96,VALID,0.0,VALID,99.398,VALID,0.015,VALID,19.808,INVALID,360.0,VALID,0.0,
2019-04-08, 01:39:06,VALID,916.965,VALID,0.0,VALID,99.438,VALID,0.003,VALID,19.893,INVALID,360.0,VALID,0.0,
2019-04-08, 01:40:06,VALID,916.981,VALID,0.0,VALID,99.452,VALID,-0.001,VALID,19.949,INVALID,360.0,VALID,0.0,
2019-04-08, 01:41:06,VALID,916.988,VALID,0.0,VALID,99.419,VALID,0.008,VALID,19.961,VALID,146.0,VALID,0.0,
2019-04-08, 01:42:06,VALID,916.994,VALID,0.0,VALID,99.434,VALID,0.012,VALID,19.963,VALID,143.0,VALID,0.0,
2019-04-08, 01:43:06,VALID,916.995,VALID,0.0,VALID,99.424,VALID,0.026,VALID,19.955,VALID,143.0,VALID,0.0,
2019-04-08, 01:44:06,VALID,916.988,VALID,0.0,VALID,99.412,VALID,0.021,VALID,19.952,VALID,143.0,VALID,0.0,
2019-04-08, 01:45:06,VALID,916.966,VALID,0.0,VALID,99.415,VALID,0.045,VALID,19.928,VALID,143.0,VALID,0.0,
2019-04-08, 01:46:06,VALID,916.961,VALID,0.0,VALID,99.405,VALID,0.026,VALID,19.856,VALID,143.0,VALID,0.0,
2019-04-08, 01:47:06,VALID,916.928,VALID,0.0,VALID,99.38,VALID,0.046,VALID,19.796,VALID,143.0,VALID,0.0,
2019-04-08, 01:48:06,VALID,916.886,VALID,0.0,VALID,99.366,VALID,0.041,VALID,19.714,INVALID,360.0,VALID,0.0,
2019-04-08, 01:49:06,VALID,916.865,VALID,0.0,VALID,99.381,VALID,0.052,VALID,19.721,INVALID,360.0,VALID,0.0,
2019-04-08, 01:50:06,VALID,916.857,VALID,0.0,VALID,99.362,VALID,0.029,VALID,19.624,INVALID,360.0,VALID,0.0,
2019-04-08, 01:51:06,VALID,916.811,VALID,0.0,VALID,99.334,VALID,0.042,VALID,19.572,INVALID,360.0,VALID,0.0,
2019-04-08, 01:52:06,VALID,916.798,VALID,0.0,VALID,99.381,VALID,0.028,VALID,19.601,INVALID,360.0,VALID,0.0,
2019-04-08, 01:53:06,VALID,916.77,VALID,0.0,VALID,99.402,VALID,0.046,VALID,19.632,INVALID,360.0,VALID,0.0,
2019-04-08, 01:54:06,VALID,916.754,VALID,0.0,VALID,99.4,VALID,0.047,VALID,19.572,INVALID,360.0,VALID,0.0,
2019-04-08, 01:55:06,VALID,916.743,VALID,0.0,VALID,99.386,VALID,0.04,VALID,19.516,INVALID,360.0,VALID,0.0,
2019-04-08, 01:56:06,VALID,916.73,VALID,0.0,VALID,99.355,VALID,0.053,VALID,19.456,INVALID,360.0,VALID,0.0,
2019-04-08, 01:57:06,VALID,916.739,VALID,0.0,VALID,99.36,VALID,0.031,VALID,19.437,INVALID,360.0,VALID,0.0,
2019-04-08, 01:58:06,VALID,916.738,VALID,0.0,VALID,99.372,VALID,0.039,VALID,19.414,INVALID,360.0,VALID,0.0,
2019-04-08, 01:59:06,VALID,916.755,VALID,0.0,VALID,99.396,VALID,0.023,VALID,19.405,INVALID,360.0,VALID,0.0,
2019-04-08, 02:00:06,VALID,916.794,VALID,0.0,VALID,99.389,VALID,0.001,VALID,19.393,INVALID,360.0,VALID,0.0,
2019-04-08, 02:01:06,VALID,916.811,VALID,0.0,VALID,99.401,VALID,0.001,VALID,19.405,INVALID,360.0,VALID,0.0,
2019-04-08, 02:02:06,VALID,916.837,VALID,0.0,VALID,99.407,VALID,-0.008,VALID,19.44,INVALID,360.0,VALID,0.0,
2019-04-08, 02:03:06,VALID,916.833,VALID,0.0,VALID,99.417,VALID,0.003,VALID,19.458,INVALID,360.0,VALID,0.0,
2019-04-08, 02:04:06,VALID,916.831,VALID,0.0,VALID,99.439,VALID,-0.009,VALID,19.489,INVALID,360.0,VALID,0.0,
2019-04-08, 02:05:06,VALID,916.813,VALID,0.0,VALID,99.449,VALID,-0.01,VALID,19.504,INVALID,360.0,VALID,0.0,
2019-04-08, 02:06:06,VALID,916.802,VALID,0.0,VALID,99.437,VALID,-0.002,VALID,19.519,INVALID,360.0,VALID,0.0,
2019-04-08, 02:07:06,VALID,916.789,VALID,0.0,VALID,99.45,VALID,0.012,VALID,19.499,INVALID,360.0,VALID,0.0,
2019-04-08, 02:08:06,VALID,916.799,VALID,0.0,VALID,99.422,VALID,-0.003,VALID,19.418,INVALID,360.0,VALID,0.0,
2019-04-08, 02:09:06,VALID,916.798,VALID,0.0,VALID,99.415,VALID,0.009,VALID,19.392,INVALID,360.0,VALID,0.0,
2019-04-08, 02:10:06,VALID,916.821,VALID,0.0,VALID,99.428,VALID,0.018,VALID,19.477,INVALID,360.0,VALID,0.0,
2019-04-08, 02:11:06,VALID,916.817,VALID,0.0,VALID,99.453,VALID,-0.002,VALID,19.516,INVALID,360.0,VALID,0.0,
2019-04-08, 02:12:06,VALID,916.841,VALID,0.0,VALID,99.456,VALID,0.008,VALID,19.541,INVALID,360.0,VALID,0.0,
2019-04-08, 02:13:06,VALID,916.832,VALID,0.0,VALID,99.464,VALID,0.013,VALID,19.594,INVALID,360.0,VALID,0.0,
2019-04-08, 02:14:06,VALID,916.82,VALID,0.0,VALID,99.411,VALID,0.002,VALID,19.495,INVALID,360.0,VALID,0.0,
2019-04-08, 02:15:06,VALID,916.81,VALID,0.0,VALID,99.371,VALID,0.032,VALID,19.387,VALID,134.0,VALID,0.0,
2019-04-08, 02:16:06,VALID,916.801,VALID,0.0,VALID,99.403,VALID,0.014,VALID,19.38,INVALID,360.0,VALID,0.0,
2019-04-08, 02:17:06,VALID,916.816,VALID,0.0,VALID,99.431,VALID,0.014,VALID,19.377,INVALID,360.0,VALID,0.0,
2019-04-08, 02:18:06,VALID,916.808,VALID,0.0,VALID,99.42,VALID,0.007,VALID,19.396,INVALID,360.0,VALID,0.0,
2019-04-08, 02:19:06,VALID,916.778,VALID,0.0,VALID,99.455,VALID,0.003,VALID,19.401,INVALID,360.0,VALID,0.0,
2019-04-08, 02:20:06,VALID,916.769,VALID,0.0,VALID,99.449,VALID,0.023,VALID,19.376,INVALID,360.0,VALID,0.0,
2019-04-08, 02:21:06,VALID,916.763,VALID,0.0,VALID,99.441,VALID,0.023,VALID,19.348,INVALID,360.0,VALID,0.0,
2019-04-08, 02:22:06,VALID,916.729,VALID,0.0,VALID,99.441,VALID,0.014,VALID,19.332,INVALID,360.0,VALID,0.0,
2019-04-08, 02:23:06,VALID,916.716,VALID,0.0,VALID,99.433,VALID,0.01,VALID,19.313,INVALID,360.0,VALID,0.0,
2019-04-08, 02:24:06,VALID,916.694,VALID,0.0,VALID,99.426,VALID,0.019,VALID,19.296,INVALID,360.0,VALID,0.0,
2019-04-08, 02:25:06,VALID,916.694,VALID,0.0,VALID,99.422,VALID,0.025,VALID,19.26,INVALID,360.0,VALID,0.0,
2019-04-08, 02:26:06,VALID,916.697,VALID,0.0,VALID,99.418,VALID,0.019,VALID,19.231,INVALID,360.0,VALID,0.0,
2019-04-08, 02:27:06,VALID,916.685,VALID,0.0,VALID,99.433,VALID,0.017,VALID,19.223,INVALID,360.0,VALID,0.0,
2019-04-08, 02:28:06,VALID,916.679,VALID,0.0,VALID,99.431,VALID,-0.001,VALID,19.232,INVALID,360.0,VALID,0.0,
2019-04-08, 02:29:06,VALID,916.674,VALID,0.0,VALID,99.432,VALID,0.038,VALID,19.242,INVALID,360.0,VALID,0.0,
2019-04-08, 02:30:06,VALID,916.658,VALID,0.0,VALID,99.43,VALID,0.057,VALID,19.135,INVALID,360.0,VALID,0.0,
2019-04-08, 02:31:06,VALID,916.656,VALID,0.0,VALID,99.417,VALID,0.033,VALID,19.071,INVALID,360.0,VALID,0.0,
2019-04-08, 02:32:06,VALID,916.662,VALID,0.0,VALID,99.415,VALID,0.032,VALID,19.057,INVALID,360.0,VALID,0.0,
2019-04-08, 02:33:06,VALID,916.663,VALID,0.0,VALID,99.436,VALID,0.044,VALID,19.079,INVALID,360.0,VALID,0.0,
2019-04-08, 02:34:06,VALID,916.661,VALID,0.0,VALID,99.438,VALID,0.059,VALID,19.096,INVALID,360.0,VALID,0.0,
2019-04-08, 02:35:06,VALID,916.666,VALID,0.0,VALID,99.447,VALID,0.046,VALID,19.1,INVALID,360.0,VALID,0.0,
2019-04-08, 02:36:06,VALID,916.657,VALID,0.0,VALID,99.455,VALID,0.043,VALID,19.098,INVALID,360.0,VALID,0.0,
2019-04-08, 02:37:06,VALID,916.642,VALID,0.0,VALID,99.454,VALID,0.052,VALID,19.107,INVALID,360.0,VALID,0.0,
2019-04-08, 02:38:06,VALID,916.638,VALID,0.0,VALID,99.441,VALID,0.053,VALID,19.092,INVALID,360.0,VALID,0.0,
2019-04-08, 02:39:06,VALID,916.615,VALID,0.0,VALID,99.457,VALID,0.069,VALID,19.118,INVALID,360.0,VALID,0.0,
2019-04-08, 02:40:06,VALID,916.631,VALID,0.0,VALID,99.5,VALID,0.051,VALID,19.213,INVALID,360.0,VALID,0.0,
2019-04-08, 02:41:06,VALID,916.645,VALID,0.0,VALID,99.485,VALID,0.047,VALID,19.246,INVALID,360.0,VALID,0.0,
2019-04-08, 02:42:06,VALID,916.622,VALID,0.0,VALID,99.468,VALID,0.049,VALID,19.236,INVALID,360.0,VALID,0.0,
2019-04-08, 02:43:06,VALID,916.639,VALID,0.0,VALID,99.476,VALID,0.051,VALID,19.267,INVALID,360.0,VALID,0.0,
2019-04-08, 02:44:06,VALID,916.623,VALID,0.0,VALID,99.485,VALID,0.042,VALID,19.303,INVALID,360.0,VALID,0.0,
2019-04-08, 02:45:06,VALID,916.625,VALID,0.0,VALID,99.442,VALID,0.004,VALID,19.074,INVALID,360.0,VALID,0.0,
2019-04-08, 02:46:06,VALID,916.611,VALID,0.0,VALID,99.381,VALID,0.001,VALID,18.925,INVALID,360.0,VALID,0.0,
2019-04-08, 02:47:06,VALID,916.598,VALID,0.0,VALID,99.402,VALID,0.01,VALID,18.95,INVALID,360.0,VALID,0.0,
2019-04-08, 02:48:06,VALID,916.605,VALID,0.0,VALID,99.425,VALID,0.0,VALID,19.001,INVALID,360.0,VALID,0.0,
2019-04-08, 02:49:06,VALID,916.611,VALID,0.0,VALID,99.44,VALID,0.004,VALID,19.011,INVALID,360.0,VALID,0.0,
2019-04-08, 02:50:06,VALID,916.62,VALID,0.0,VALID,99.462,VALID,0.004,VALID,19.054,INVALID,360.0,VALID,0.0,
2019-04-08, 02:51:06,VALID,916.66,VALID,0.0,VALID,99.452,VALID,0.002,VALID,18.986,INVALID,360.0,VALID,0.0,
2019-04-08, 02:52:06,VALID,916.668,VALID,0.0,VALID,99.45,VALID,0.0,VALID,19.039,INVALID,360.0,VALID,0.0,
2019-04-08, 02:53:06,VALID,916.677,VALID,0.0,VALID,99.473,VALID,-0.005,VALID,19.079,INVALID,360.0,VALID,0.0,
2019-04-08, 02:54:06,VALID,916.684,VALID,0.0,VALID,99.487,VALID,0.008,VALID,19.141,INVALID,360.0,VALID,0.0,
2019-04-08, 02:55:06,VALID,916.684,VALID,0.0,VALID,99.5,VALID,-0.008,VALID,19.177,INVALID,360.0,VALID,0.0,
2019-04-08, 02:56:06,VALID,916.692,VALID,0.0,VALID,99.462,VALID,-0.01,VALID,19.138,INVALID,360.0,VALID,0.0,
2019-04-08, 02:57:06,VALID,916.701,VALID,0.0,VALID,99.445,VALID,0.001,VALID,19.082,INVALID,360.0,VALID,0.0,
2019-04-08, 02:58:06,VALID,916.693,VALID,0.0,VALID,99.432,VALID,-0.009,VALID,19.042,INVALID,360.0,VALID,0.0,
2019-04-08, 02:59:06,VALID,916.717,VALID,0.0,VALID,99.446,VALID,0.024,VALID,19.043,INVALID,360.0,VALID,0.0,
2019-04-08, 03:00:06,VALID,916.71,VALID,0.0,VALID,99.458,VALID,0.048,VALID,19.031,INVALID,360.0,VALID,0.0,
2019-04-08, 03:01:06,VALID,916.729,VALID,0.0,VALID,99.479,VALID,0.06,VALID,19.051,INVALID,360.0,VALID,0.0,
2019-04-08, 03:02:06,VALID,916.749,VALID,0.0,VALID,99.497,VALID,0.085,VALID,19.12,INVALID,360.0,VALID,0.0,
2019-04-08, 03:03:06,VALID,916.759,VALID,0.0,VALID,99.499,VALID,0.069,VALID,19.143,INVALID,360.0,VALID,0.0,
2019-04-08, 03:04:06,VALID,916.8,VALID,0.0,VALID,99.452,VALID,0.064,VALID,19.071,INVALID,360.0,VALID,0.0,
2019-04-08, 03:05:06,VALID,916.823,VALID,0.0,VALID,99.49,VALID,0.057,VALID,19.079,INVALID,360.0,VALID,0.0,
2019-04-08, 03:06:06,VALID,916.839,VALID,0.0,VALID,99.498,VALID,0.097,VALID,19.122,INVALID,360.0,VALID,0.0,
2019-04-08, 03:07:06,VALID,916.853,VALID,0.0,VALID,99.523,VALID,0.069,VALID,19.181,INVALID,360.0,VALID,0.0,
2019-04-08, 03:08:06,VALID,916.881,VALID,0.0,VALID,99.516,VALID,0.05,VALID,19.239,INVALID,360.0,VALID,0.0,
2019-04-08, 03:09:06,VALID,916.89,VALID,0.0,VALID,99.524,VALID,0.077,VALID,19.276,INVALID,360.0,VALID,0.0,
2019-04-08, 03:10:06,VALID,916.879,VALID,0.0,VALID,99.529,VALID,0.078,VALID,19.306,INVALID,360.0,VALID,0.0,
2019-04-08, 03:11:06,VALID,916.896,VALID,0.0,VALID,99.515,VALID,0.062,VALID,19.287,INVALID,360.0,VALID,0.0,
2019-04-08, 03:12:06,VALID,916.892,VALID,0.0,VALID,99.476,VALID,0.079,VALID,19.223,INVALID,360.0,VALID,0.0,
2019-04-08, 03:13:06,VALID,916.891,VALID,0.0,VALID,99.505,VALID,0.093,VALID,19.237,INVALID,360.0,VALID,0.0,
2019-04-08, 03:14:06,VALID,916.89,VALID,0.0,VALID,99.479,VALID,0.057,VALID,19.104,INVALID,360.0,VALID,0.0,
2019-04-08, 03:15:06,VALID,916.924,VALID,0.0,VALID,99.432,VALID,-0.016,VALID,18.904,INVALID,360.0,VALID,0.0,
2019-04-08, 03:16:06,VALID,916.913,VALID,0.0,VALID,99.393,VALID,-0.021,VALID,18.798,INVALID,360.0,VALID,0.0,
2019-04-08, 03:17:06,VALID,916.901,VALID,0.0,VALID,99.397,VALID,-0.007,VALID,18.773,INVALID,360.0,VALID,0.0,
2019-04-08, 03:18:06,VALID,916.901,VALID,0.0,VALID,99.409,VALID,-0.009,VALID,18.695,INVALID,360.0,VALID,0.0,
2019-04-08, 03:19:06,VALID,916.89,VALID,0.0,VALID,99.431,VALID,0.004,VALID,18.734,INVALID,360.0,VALID,0.0,
2019-04-08, 03:20:06,VALID,916.884,VALID,0.0,VALID,99.446,VALID,-0.003,VALID,18.677,INVALID,360.0,VALID,0.0,
2019-04-08, 03:21:06,VALID,916.888,VALID,0.0,VALID,99.444,VALID,-0.021,VALID,18.767,INVALID,360.0,VALID,0.0,
2019-04-08, 03:22:06,VALID,916.893,VALID,0.0,VALID,99.489,VALID,-0.005,VALID,18.826,INVALID,360.0,VALID,0.0,
2019-04-08, 03:23:06,VALID,916.913,VALID,0.0,VALID,99.472,VALID,-0.005,VALID,18.778,INVALID,360.0,VALID,0.0,
2019-04-08, 03:24:06,VALID,916.906,VALID,0.0,VALID,99.479,VALID,0.001,VALID,18.716,INVALID,360.0,VALID,0.0,
2019-04-08, 03:25:06,VALID,916.922,VALID,0.0,VALID,99.479,VALID,-0.002,VALID,18.72,INVALID,360.0,VALID,0.0,
2019-04-08, 03:26:06,VALID,916.925,VALID,0.0,VALID,99.449,VALID,-0.019,VALID,18.683,INVALID,360.0,VALID,0.0,
2019-04-08, 03:27:06,VALID,916.925,VALID,0.0,VALID,99.465,VALID,0.006,VALID,18.679,INVALID,360.0,VALID,0.0,
2019-04-08, 03:28:06,VALID,916.897,VALID,0.0,VALID,99.467,VALID,0.002,VALID,18.705,INVALID,360.0,VALID,0.0,
2019-04-08, 03:29:06,VALID,916.873,VALID,0.0,VALID,99.475,VALID,0.016,VALID,18.724,INVALID,360.0,VALID,0.0,
2019-04-08, 03:30:06,VALID,916.852,VALID,0.0,VALID,99.496,VALID,0.061,VALID,18.794,INVALID,360.0,VALID,0.0,
2019-04-08, 03:31:06,VALID,916.836,VALID,0.0,VALID,99.497,VALID,0.049,VALID,18.809,INVALID,360.0,VALID,0.0,
2019-04-08, 03:32:06,VALID,916.817,VALID,0.0,VALID,99.477,VALID,0.059,VALID,18.743,INVALID,360.0,VALID,0.0,
2019-04-08, 03:33:06,VALID,916.789,VALID,0.0,VALID,99.45,VALID,0.06,VALID,18.669,INVALID,360.0,VALID,0.0,
2019-04-08, 03:34:06,VALID,916.778,VALID,0.0,VALID,99.466,VALID,0.046,VALID,18.713,INVALID,360.0,VALID,0.0,
2019-04-08, 03:35:06,VALID,916.781,VALID,0.0,VALID,99.492,VALID,0.038,VALID,18.753,INVALID,360.0,VALID,0.0,
2019-04-08, 03:36:06,VALID,916.776,VALID,0.0,VALID,99.507,VALID,0.047,VALID,18.813,INVALID,360.0,VALID,0.0,
2019-04-08, 03:37:06,VALID,916.785,VALID,0.0,VALID,99.524,VALID,0.052,VALID,18.887,INVALID,360.0,VALID,0.0,
2019-04-08, 03:38:06,VALID,916.784,VALID,0.0,VALID,99.53,VALID,0.037,VALID,18.891,INVALID,360.0,VALID,0.0,